Weather History for Bartlesville, OK

Change the Weather History Date:

Monday, March 24, 2014

  Actual Average Record
Temperature  
Mean Temperature 39 °F -  
Max Temperature 57 °F 63 °F 84 °F (1988)
Min Temperature 23 °F 38 °F 17 °F (1974)
Degree Days  
Heating Degree Days 26    
Moisture  
Dew Point 26 °F    
Average Humidity 68    
Maximum Humidity 96    
Minimum Humidity 31    
Precipitation  
Precipitation 0.00 in - - ()
Sea Level Pressure  
Sea Level Pressure 30.23 in    
Wind  
Wind Speed 4 mph (NNE)    
Max Wind Speed 21 mph    
Max Gust Speed 34 mph    
Visibility 9 miles    
Events      
Averages and records for this station are not official NWS values.
T = Trace of Precipitation, MM = Missing Value Source: NWS Daily Summary

Daily Weather History Graph

Daily Weather History Graph

Search for Another Location

Airport:

Trip Planner

Search our weather history database for the weather conditions in past years. The results will help you decide how hot, cold, wet, or windy it might be!

Date:

Astronomy

Mar. 24, 2014 Rise Set
Actual Time 7:21 AM CDT 7:39 PM CDT
Civil Twilight 6:55 AM CDT 8:05 PM CDT
Nautical Twilight 6:25 AM CDT 8:35 PM CDT
Astronomical Twilight 5:54 AM CDT 9:06 PM CDT
Moon 2:44 AM CDT (3/24) 1:14 PM CDT (3/24)
Length of Visible Light 13h 09m
Length of Day
12h 17m
Last Quarter, 43% of the Moon is Illuminated
Mar 24
Last Quarter
Mar 30
New
Apr 7
First Quarter
Apr 15
Full
Apr 22
Last Quarter

Hourly Weather History & Observations

Time (CDT) Temp. Windchill Dew Point Humidity Pressure Visibility Wind Dir Wind Speed Gust Speed Precip Events Conditions
12:53 AM 26.1 °F - 21.0 °F 81% 30.31 in 10.0 mi Calm Calm - N/A   Clear
1:53 AM 25.0 °F - 21.0 °F 85% 30.29 in 10.0 mi Calm Calm - N/A   Clear
2:53 AM 24.1 °F - 19.9 °F 84% 30.28 in 10.0 mi Calm Calm - N/A   Clear
3:53 AM 24.1 °F - 19.9 °F 84% 30.25 in 10.0 mi Calm Calm - N/A   Clear
4:53 AM 23.0 °F - 21.0 °F 92% 30.24 in 10.0 mi Calm Calm - N/A   Clear
5:53 AM 23.0 °F - 19.9 °F 88% 30.23 in 10.0 mi Calm Calm - N/A   Scattered Clouds
6:53 AM 27.0 °F - 24.1 °F 89% 30.24 in 10.0 mi Calm Calm - N/A   Overcast
7:53 AM 28.9 °F - 24.1 °F 82% 30.23 in 8.0 mi Calm Calm - N/A   Scattered Clouds
8:53 AM 35.1 °F 32.2 °F 26.1 °F 70% 30.23 in 10.0 mi SSE 3.5 mph - N/A   Clear
9:53 AM 42.1 °F 38.4 °F 28.0 °F 58% 30.22 in 10.0 mi South 5.8 mph - N/A   Clear
10:53 AM 48.0 °F - 30.0 °F 50% 30.19 in 10.0 mi South 8.1 mph - N/A   Clear
11:53 AM 53.1 °F - 30.0 °F 41% 30.19 in 10.0 mi North - - N/A   Clear
12:53 PM 55.0 °F - 28.0 °F 35% 30.17 in 10.0 mi Variable 3.5 mph - N/A   Partly Cloudy
1:53 PM 55.9 °F - 27.0 °F 33% 30.15 in 10.0 mi North 8.1 mph - N/A   Overcast
2:53 PM 54.0 °F - 27.0 °F 35% 30.15 in 10.0 mi North 11.5 mph 20.7 mph N/A   Overcast
3:53 PM 54.0 °F - 24.1 °F 31% 30.15 in 10.0 mi NNE 19.6 mph - N/A   Scattered Clouds
4:53 PM 54.0 °F - 26.1 °F 34% 30.16 in 10.0 mi North 20.7 mph 28.8 mph N/A   Partly Cloudy
5:53 PM 45.0 °F 36.9 °F 30.0 °F 56% 30.21 in 10.0 mi North 20.7 mph 34.5 mph N/A   Mostly Cloudy
6:53 PM 41.0 °F 31.9 °F 33.1 °F 73% 30.25 in 7.0 mi North 19.6 mph 28.8 mph N/A   Mostly Cloudy
7:53 PM 37.9 °F 29.6 °F 32.0 °F 79% 30.25 in 10.0 mi North 13.8 mph - N/A   Overcast
8:53 PM 35.1 °F 31.0 °F 30.0 °F 82% 30.28 in 10.0 mi North 4.6 mph - N/A   Clear
9:53 PM 32.0 °F - 30.0 °F 92% 30.30 in 9.0 mi Calm Calm - N/A   Clear
10:53 PM 27.0 °F - 26.1 °F 96% 30.31 in 6.0 mi Calm Calm - N/A   Clear
11:53 PM 28.9 °F - 27.0 °F 92% 30.31 in 6.0 mi Calm Calm - N/A   Clear